User: anonymous   Login
Location: Unspecified
(0.0000°N, 0.0000°E)
Time: 19:02:32
(UTC+00:00)
Language:

STARLINK-32510 - Orbit

View from above orbital plane
View from above orbital plane
View from above satellite
View from above satellite

Ground track
Ground track

The orbit is defined by the following mean orbital elements,

1 62040U          26145.48665625 +.00000000 +00000-0 +32695-3 0 00003
2 62040  43.0016 190.1457 0001880 276.2317  83.8320 15.27571839    02
Epoch (UTC): 25 May 2026 11:40:47
Eccentricity: 0.0001880
inclination: 43.0016°
perigee height: 482 km
apogee height: 484 km
right ascension of ascending node: 190.1457°
argument of perigee: 276.2317°
revolutions per day: 15.27571839
mean anomaly at epoch: 83.8320°

The dashed part of the orbit path shows where the satellite is in the earth's shadow,  

DLR